Overview Statistics Trail Chart Weather Telemetry Raw packets
 

This is the latest recevied weather packets stored in our database for station/object VK2EHQ. If no packets are shown the sender has not sent any weather packets the latest 10 day(s).

<< 30 31 32 33 34 35 36 >>
Time Temp. Humidity Pressure Rain* Wind** Luminosity Snow
1788093598 11.11° C 64% 1031.4 hPa 0 mm - - -
1788092998 11.11° C 61% 1031.4 hPa 0 mm - - -
1788092398 11.67° C 59% 1031.4 hPa 0 mm - - -
1788091798 12.22° C 57% 1031.4 hPa 0 mm - - -
1788091198 12.22° C 56% 1031.3 hPa 0 mm - - -
1788090598 12.78° C 56% 1031.2 hPa 0 mm - - -
1788089997 12.78° C 55% 1031.2 hPa 0 mm - - -
1788089398 13.33° C 56% 1031.2 hPa 0 mm - - -
1788088797 13.33° C 56% 1031.2 hPa 0 mm - - -
1788088197 13.33° C 59% 1031.2 hPa 0 mm - - -
1788087597 12.78° C 61% 1031.2 hPa 0 mm - - -
1788086997 12.78° C 62% 1031.1 hPa 0 mm - - -
1788086398 13.33° C 62% 1031 hPa 0 mm - - -
1788085800 13.33° C 63% 1030.9 hPa 0 mm - - -
1788085197 13.33° C 63% 1031 hPa 0 mm - - -
1788084597 13.89° C 63% 1031 hPa 0 mm - - -
1788083997 13.89° C 64% 1030.9 hPa 0 mm - - -
1788083397 13.89° C 64% 1030.8 hPa 0 mm - - -
1788082797 14.44° C 64% 1030.7 hPa 0 mm - - -
1788082197 14.44° C 65% 1030.7 hPa 0 mm - - -
1788081612 14.44° C 66% 1030.6 hPa 0 mm - - -
1788080996 14.44° C 67% 1030.6 hPa 0 mm - - -
1788080396 15° C 67% 1030.6 hPa 0 mm - - -
1788079796 15° C 67% 1030.3 hPa 0 mm - - -
1788079196 15.56° C 68% 1030.2 hPa 0 mm - - -

* Rain latest hour (hover to see other rain measurements)
** Current wind speed in m/s (hover to see current wind gust speed)